SENTINEL-1A             
1 39634U 14016A   19265.23035854 -.00000069  00000-0 -49222-5 0  9991
2 39634  98.1821 271.0699 0001194  78.4448 281.6884 14.59197617291302
SENTINEL-1A DEB         
1 41798U 14016B   19265.10657847  .00003612  00000-0  39500-3 0  9994
2 41798  98.1551 310.3002 0058489  64.9028 295.8241 14.87255914165450
SENTINEL-1A DEB         
1 41804U 14016H   19264.64967743  .00003593  00000-0  42987-3 0  9990
2 41804  98.1688 306.3833 0053600  81.3766 279.3515 14.83788484165223